Year,Month,Day,Hour,Minute,Value (Times are PST for temperature in C)
2012,09,16,00,00,15.90
2012,09,16,00,01,15.90
2012,09,16,00,02,15.90
2012,09,16,00,03,15.90
2012,09,16,00,04,15.90
2012,09,16,00,05,15.90
2012,09,16,00,06,15.80
2012,09,16,00,07,15.80
2012,09,16,00,08,15.80
2012,09,16,00,09,15.80
2012,09,16,00,10,15.80
2012,09,16,00,11,15.80
2012,09,16,00,12,15.70
2012,09,16,00,13,15.70
2012,09,16,00,14,15.70
2012,09,16,00,15,15.70
2012,09,16,00,16,15.70
2012,09,16,00,17,15.70
2012,09,16,00,18,15.70
2012,09,16,00,19,15.70
2012,09,16,00,20,15.70
2012,09,16,00,21,15.70
2012,09,16,00,22,15.60
2012,09,16,00,23,15.60
2012,09,16,00,24,15.60
2012,09,16,00,25,15.60
2012,09,16,00,26,15.60
2012,09,16,00,27,15.60
2012,09,16,00,28,15.60
2012,09,16,00,29,15.60
2012,09,16,00,30,15.50
2012,09,16,00,31,15.50
2012,09,16,00,32,15.60
2012,09,16,00,33,15.60
2012,09,16,00,34,15.60
2012,09,16,00,35,15.50
2012,09,16,00,36,15.50
2012,09,16,00,37,15.50
2012,09,16,00,38,15.50
2012,09,16,00,39,15.50
2012,09,16,00,40,15.50
2012,09,16,00,41,15.40
2012,09,16,00,42,15.40
2012,09,16,00,43,15.40
2012,09,16,00,44,15.40
2012,09,16,00,45,15.30
2012,09,16,00,46,15.30
2012,09,16,00,47,15.30
2012,09,16,00,48,15.30
2012,09,16,00,49,15.30
2012,09,16,00,50,15.30
2012,09,16,00,51,15.20
2012,09,16,00,52,15.20
2012,09,16,00,53,15.20
2012,09,16,00,54,15.20
2012,09,16,00,55,15.10
2012,09,16,00,56,15.10
2012,09,16,00,57,15.00
2012,09,16,00,58,15.00
2012,09,16,00,59,14.90
2012,09,16,01,00,14.90
2012,09,16,01,01,14.90
2012,09,16,01,02,14.80
2012,09,16,01,03,14.80
2012,09,16,01,04,14.80
2012,09,16,01,05,14.80
2012,09,16,01,06,14.80
2012,09,16,01,07,14.80
2012,09,16,01,08,14.80
2012,09,16,01,09,14.80
2012,09,16,01,10,14.80
2012,09,16,01,11,14.80
2012,09,16,01,12,14.80
2012,09,16,01,13,14.80
2012,09,16,01,14,14.80
2012,09,16,01,15,14.70
2012,09,16,01,16,14.70
2012,09,16,01,17,14.70
2012,09,16,01,18,14.70
2012,09,16,01,19,14.70
2012,09,16,01,20,14.70
2012,09,16,01,21,14.70
2012,09,16,01,22,14.70
2012,09,16,01,23,14.60
2012,09,16,01,24,14.60
2012,09,16,01,25,14.60
2012,09,16,01,26,14.60
2012,09,16,01,27,14.60
2012,09,16,01,28,14.60
2012,09,16,01,29,14.60
2012,09,16,01,30,14.60
2012,09,16,01,31,14.60
2012,09,16,01,32,14.60
2012,09,16,01,33,14.60
2012,09,16,01,34,14.60
2012,09,16,01,35,14.60
2012,09,16,01,36,14.60
2012,09,16,01,37,14.60
2012,09,16,01,38,14.60
2012,09,16,01,39,14.50
2012,09,16,01,40,14.50
2012,09,16,01,41,14.50
2012,09,16,01,42,14.50
2012,09,16,01,43,14.50
2012,09,16,01,44,14.40
2012,09,16,01,45,14.40
2012,09,16,01,46,14.40
2012,09,16,01,47,14.40
2012,09,16,01,48,14.50
2012,09,16,01,49,14.50
2012,09,16,01,50,14.50
2012,09,16,01,51,14.50
2012,09,16,01,52,14.50
2012,09,16,01,53,14.50
2012,09,16,01,54,14.50
2012,09,16,01,55,14.50
2012,09,16,01,56,14.50
2012,09,16,01,57,14.50
2012,09,16,01,58,14.60
2012,09,16,01,59,14.60
2012,09,16,02,00,14.60
2012,09,16,02,01,14.60
2012,09,16,02,02,14.60
2012,09,16,02,03,14.70
2012,09,16,02,04,14.70
2012,09,16,02,05,14.70
2012,09,16,02,06,14.70
2012,09,16,02,07,14.70
2012,09,16,02,08,14.80
2012,09,16,02,09,14.80
2012,09,16,02,10,14.80
2012,09,16,02,11,14.80
2012,09,16,02,12,14.80
2012,09,16,02,13,14.80
2012,09,16,02,14,14.80
2012,09,16,02,15,14.80
2012,09,16,02,16,14.80
2012,09,16,02,17,14.80
2012,09,16,02,18,14.80
2012,09,16,02,19,14.80
2012,09,16,02,20,14.80
2012,09,16,02,21,14.80
2012,09,16,02,22,14.80
2012,09,16,02,23,14.80
2012,09,16,02,24,14.80
2012,09,16,02,25,14.80
2012,09,16,02,26,14.80
2012,09,16,02,27,14.80
2012,09,16,02,28,14.80
2012,09,16,02,29,14.80
2012,09,16,02,30,14.80
2012,09,16,02,31,14.80
2012,09,16,02,32,14.80
2012,09,16,02,33,14.90
2012,09,16,02,34,14.90
2012,09,16,02,35,14.90
2012,09,16,02,36,14.90
2012,09,16,02,37,14.90
2012,09,16,02,38,14.90
2012,09,16,02,39,14.90
2012,09,16,02,40,14.90
2012,09,16,02,41,14.90
2012,09,16,02,42,14.90
2012,09,16,02,43,14.90
2012,09,16,02,44,14.90
2012,09,16,02,45,14.90
2012,09,16,02,46,14.90
2012,09,16,02,47,14.90
2012,09,16,02,48,14.80
2012,09,16,02,49,14.80
2012,09,16,02,50,14.80
2012,09,16,02,51,14.80
2012,09,16,02,52,14.80
2012,09,16,02,53,14.80
2012,09,16,02,54,14.80
2012,09,16,02,55,14.80
2012,09,16,02,56,14.80
2012,09,16,02,57,14.70
2012,09,16,02,58,14.70
2012,09,16,02,59,14.80
2012,09,16,03,00,14.80
2012,09,16,03,01,14.80
2012,09,16,03,02,14.80
2012,09,16,03,03,14.80
2012,09,16,03,04,14.80
2012,09,16,03,05,14.80
2012,09,16,03,06,14.90
2012,09,16,03,07,14.90
2012,09,16,03,08,14.90
2012,09,16,03,09,14.90
2012,09,16,03,10,14.90
2012,09,16,03,11,15.00
2012,09,16,03,12,15.00
2012,09,16,03,13,15.00
2012,09,16,03,14,15.00
2012,09,16,03,15,15.00
2012,09,16,03,16,15.00
2012,09,16,03,17,15.00
2012,09,16,03,18,15.00
2012,09,16,03,19,14.90
2012,09,16,03,20,14.90
2012,09,16,03,21,14.90
2012,09,16,03,22,14.90
2012,09,16,03,23,14.90
2012,09,16,03,24,14.80
2012,09,16,03,25,14.80
2012,09,16,03,26,14.80
2012,09,16,03,27,14.80
2012,09,16,03,28,14.80
2012,09,16,03,29,14.80
2012,09,16,03,30,14.80
2012,09,16,03,31,14.80
2012,09,16,03,32,14.80
2012,09,16,03,33,14.80
2012,09,16,03,34,14.70
2012,09,16,03,35,14.70
2012,09,16,03,36,14.70
2012,09,16,03,37,14.70
2012,09,16,03,38,14.70
2012,09,16,03,39,14.70
2012,09,16,03,40,14.70
2012,09,16,03,41,14.60
2012,09,16,03,42,14.60
2012,09,16,03,43,14.60
2012,09,16,03,44,14.60
2012,09,16,03,45,14.60
2012,09,16,03,46,14.60
2012,09,16,03,47,14.60
2012,09,16,03,48,14.60
2012,09,16,03,49,14.60
2012,09,16,03,50,14.60
2012,09,16,03,51,14.60
2012,09,16,03,52,14.60
2012,09,16,03,53,14.60
2012,09,16,03,54,14.60
2012,09,16,03,55,14.50
2012,09,16,03,56,14.50
2012,09,16,03,57,14.50
2012,09,16,03,58,14.50
2012,09,16,03,59,14.40
2012,09,16,04,00,14.40
2012,09,16,04,01,14.40
2012,09,16,04,02,14.40
2012,09,16,04,03,14.40
2012,09,16,04,04,14.40
2012,09,16,04,05,14.40
2012,09,16,04,06,14.40
2012,09,16,04,07,14.30
2012,09,16,04,08,14.30
2012,09,16,04,09,14.30
2012,09,16,04,10,14.30
2012,09,16,04,11,14.30
2012,09,16,04,12,14.30
2012,09,16,04,13,14.30
2012,09,16,04,14,14.30
2012,09,16,04,15,14.20
2012,09,16,04,16,14.20
2012,09,16,04,17,14.20
2012,09,16,04,18,14.20
2012,09,16,04,19,14.20
2012,09,16,04,20,14.20
2012,09,16,04,21,14.20
2012,09,16,04,22,14.20
2012,09,16,04,23,14.20
2012,09,16,04,24,14.20
2012,09,16,04,25,14.20
2012,09,16,04,26,14.20
2012,09,16,04,27,14.20
2012,09,16,04,28,14.20
2012,09,16,04,29,14.20
2012,09,16,04,30,14.20
2012,09,16,04,31,14.20
2012,09,16,04,32,14.10
2012,09,16,04,33,14.10
2012,09,16,04,34,14.10
2012,09,16,04,35,14.00
2012,09,16,04,36,14.00
2012,09,16,04,37,14.00
2012,09,16,04,38,13.90
2012,09,16,04,39,14.00
2012,09,16,04,40,14.00
2012,09,16,04,41,14.00
2012,09,16,04,42,14.00
2012,09,16,04,43,14.00
2012,09,16,04,44,14.00
2012,09,16,04,45,14.00
2012,09,16,04,46,14.00
2012,09,16,04,47,14.00
2012,09,16,04,48,14.00
2012,09,16,04,49,14.00
2012,09,16,04,50,14.10
2012,09,16,04,51,14.10
2012,09,16,04,52,14.10
2012,09,16,04,53,14.10
2012,09,16,04,54,14.10
2012,09,16,04,55,14.10
2012,09,16,04,56,14.10
2012,09,16,04,57,14.10
2012,09,16,04,58,14.10
2012,09,16,04,59,14.10
2012,09,16,05,00,14.10
2012,09,16,05,01,14.10
2012,09,16,05,02,14.10
2012,09,16,05,03,14.10
2012,09,16,05,04,14.10
2012,09,16,05,05,14.10
2012,09,16,05,06,14.20
2012,09,16,05,07,14.20
2012,09,16,05,08,14.20
2012,09,16,05,09,14.20
2012,09,16,05,10,14.20
2012,09,16,05,11,14.30
2012,09,16,05,12,14.30
2012,09,16,05,13,14.30
2012,09,16,05,14,14.30
2012,09,16,05,15,14.30
2012,09,16,05,16,14.30
2012,09,16,05,17,14.30
2012,09,16,05,18,14.30
2012,09,16,05,19,14.30
2012,09,16,05,20,14.30
2012,09,16,05,21,14.30
2012,09,16,05,22,14.30
2012,09,16,05,23,14.30
2012,09,16,05,24,14.30
2012,09,16,05,25,14.30
2012,09,16,05,26,14.30
2012,09,16,05,27,14.30
2012,09,16,05,28,14.30
2012,09,16,05,29,14.30
2012,09,16,05,30,14.30
2012,09,16,05,31,14.30
2012,09,16,05,32,14.30
2012,09,16,05,33,14.30
2012,09,16,05,34,14.30
2012,09,16,05,35,14.30
2012,09,16,05,36,14.30
2012,09,16,05,37,14.30
2012,09,16,05,38,14.30
2012,09,16,05,39,14.20
2012,09,16,05,40,14.20
2012,09,16,05,41,14.20
2012,09,16,05,42,14.20
2012,09,16,05,43,14.20
2012,09,16,05,44,14.20
2012,09,16,05,45,14.20
2012,09,16,05,46,14.20
2012,09,16,05,47,14.20
2012,09,16,05,48,14.20
2012,09,16,05,49,14.20
2012,09,16,05,50,14.10
2012,09,16,05,51,14.10
2012,09,16,05,52,14.10
2012,09,16,05,53,14.10
2012,09,16,05,54,14.10
2012,09,16,05,55,14.20
2012,09,16,05,56,14.20
2012,09,16,05,57,14.20
2012,09,16,05,58,14.20
2012,09,16,05,59,14.20
2012,09,16,06,00,14.20
2012,09,16,06,01,14.20
2012,09,16,06,02,14.30
2012,09,16,06,03,14.20
2012,09,16,06,04,14.20
2012,09,16,06,05,14.20
2012,09,16,06,06,14.20
2012,09,16,06,07,14.20
2012,09,16,06,08,14.20
2012,09,16,06,09,14.20
2012,09,16,06,10,14.20
2012,09,16,06,11,14.20
2012,09,16,06,12,14.20
2012,09,16,06,13,14.20
2012,09,16,06,14,14.20
2012,09,16,06,15,14.20
2012,09,16,06,16,14.20
2012,09,16,06,17,14.20
2012,09,16,06,18,14.30
2012,09,16,06,19,14.20
2012,09,16,06,20,14.20
2012,09,16,06,21,14.20
2012,09,16,06,22,14.20
2012,09,16,06,23,14.20
2012,09,16,06,24,14.20
2012,09,16,06,25,14.20
2012,09,16,06,26,14.20
2012,09,16,06,27,14.10
2012,09,16,06,28,14.10
2012,09,16,06,29,14.10
2012,09,16,06,30,14.10
2012,09,16,06,31,14.00
2012,09,16,06,32,14.00
2012,09,16,06,33,14.00
2012,09,16,06,34,13.90
2012,09,16,06,35,13.90
2012,09,16,06,36,13.90
2012,09,16,06,37,13.90
2012,09,16,06,38,13.90
2012,09,16,06,39,13.90
2012,09,16,06,40,14.00
2012,09,16,06,41,14.00
2012,09,16,06,42,14.00
2012,09,16,06,43,14.00
2012,09,16,06,44,14.00
2012,09,16,06,45,14.00
2012,09,16,06,46,14.00
2012,09,16,06,47,14.00
2012,09,16,06,48,14.00
2012,09,16,06,49,14.00
2012,09,16,06,50,14.00
2012,09,16,06,51,14.00
2012,09,16,06,52,14.00
2012,09,16,06,53,13.90
2012,09,16,06,54,13.90
2012,09,16,06,55,13.90
2012,09,16,06,56,13.90
2012,09,16,06,57,13.90
2012,09,16,06,58,13.90
2012,09,16,06,59,13.80
2012,09,16,07,00,13.80
2012,09,16,07,01,13.80
2012,09,16,07,02,13.80
2012,09,16,07,03,13.80
2012,09,16,07,04,13.90
2012,09,16,07,05,13.90
2012,09,16,07,06,13.90
2012,09,16,07,07,14.00
2012,09,16,07,08,14.00
2012,09,16,07,09,14.00
2012,09,16,07,10,14.00
2012,09,16,07,11,14.00
2012,09,16,07,12,14.00
2012,09,16,07,13,14.00
2012,09,16,07,14,13.90
2012,09,16,07,15,13.90
2012,09,16,07,16,13.90
2012,09,16,07,17,13.90
2012,09,16,07,18,13.90
2012,09,16,07,19,13.90
2012,09,16,07,20,13.90
2012,09,16,07,21,13.90
2012,09,16,07,22,14.00
2012,09,16,07,23,14.00
2012,09,16,07,24,14.00
2012,09,16,07,25,14.00
2012,09,16,07,26,14.10
2012,09,16,07,27,14.10
2012,09,16,07,28,14.10
2012,09,16,07,29,14.10
2012,09,16,07,30,14.20
2012,09,16,07,31,14.20
2012,09,16,07,32,14.20
2012,09,16,07,33,14.20
2012,09,16,07,34,14.20
2012,09,16,07,35,14.20
2012,09,16,07,36,14.20
2012,09,16,07,37,14.20
2012,09,16,07,38,14.20
2012,09,16,07,39,14.20
2012,09,16,07,40,14.20
2012,09,16,07,41,14.30
2012,09,16,07,42,14.30
2012,09,16,07,43,14.30
2012,09,16,07,44,14.30
2012,09,16,07,45,14.30
2012,09,16,07,46,14.30
2012,09,16,07,47,14.30
2012,09,16,07,48,14.30
2012,09,16,07,49,14.40
2012,09,16,07,50,14.40
2012,09,16,07,51,14.40
2012,09,16,07,52,14.40
2012,09,16,07,53,14.40
2012,09,16,07,54,14.50
2012,09,16,07,55,14.50
2012,09,16,07,56,14.50
2012,09,16,07,57,14.60
2012,09,16,07,58,14.60
2012,09,16,07,59,14.60
2012,09,16,08,00,14.60
2012,09,16,08,01,14.70
2012,09,16,08,02,14.70
2012,09,16,08,03,14.70
2012,09,16,08,04,14.80
2012,09,16,08,05,14.80
2012,09,16,08,06,14.80
2012,09,16,08,07,14.80
2012,09,16,08,08,14.90
2012,09,16,08,09,14.90
2012,09,16,08,10,14.90
2012,09,16,08,11,15.00
2012,09,16,08,12,15.00
2012,09,16,08,13,15.00
2012,09,16,08,14,15.10
2012,09,16,08,15,15.10
2012,09,16,08,16,15.20
2012,09,16,08,17,15.20
2012,09,16,08,18,15.20
2012,09,16,08,19,15.20
2012,09,16,08,20,15.20
2012,09,16,08,21,15.30
2012,09,16,08,22,15.20
2012,09,16,08,23,15.20
2012,09,16,08,24,15.20
2012,09,16,08,25,15.20
2012,09,16,08,26,15.20
2012,09,16,08,27,15.20
2012,09,16,08,28,15.20
2012,09,16,08,29,15.20
2012,09,16,08,30,15.20
2012,09,16,08,31,15.20
2012,09,16,08,32,15.20
2012,09,16,08,33,15.20
2012,09,16,08,34,15.20
2012,09,16,08,35,15.30
2012,09,16,08,36,15.30
2012,09,16,08,37,15.30
2012,09,16,08,38,15.30
2012,09,16,08,39,15.40
2012,09,16,08,40,15.40
2012,09,16,08,41,15.40
2012,09,16,08,42,15.50
2012,09,16,08,43,15.50
2012,09,16,08,44,15.50
2012,09,16,08,45,15.60
2012,09,16,08,46,15.60
2012,09,16,08,47,15.60
2012,09,16,08,48,15.70
2012,09,16,08,49,15.70
2012,09,16,08,50,15.70
2012,09,16,08,51,15.70
2012,09,16,08,52,15.80
2012,09,16,08,53,15.80
2012,09,16,08,54,15.80
2012,09,16,08,55,15.80
2012,09,16,08,56,15.80
2012,09,16,08,57,15.90
2012,09,16,08,58,15.90
2012,09,16,08,59,15.90
2012,09,16,09,00,15.90
2012,09,16,09,01,15.90
2012,09,16,09,02,15.90
2012,09,16,09,03,15.90
2012,09,16,09,04,15.90
2012,09,16,09,05,15.90
2012,09,16,09,06,15.90
2012,09,16,09,07,15.90
2012,09,16,09,08,15.90
2012,09,16,09,09,15.90
2012,09,16,09,10,15.90
2012,09,16,09,11,15.90
2012,09,16,09,12,15.90
2012,09,16,09,13,15.90
2012,09,16,09,14,15.90
2012,09,16,09,15,16.00
2012,09,16,09,16,16.00
2012,09,16,09,17,16.00
2012,09,16,09,18,16.00
2012,09,16,09,19,16.10
2012,09,16,09,20,16.10
2012,09,16,09,21,16.10
2012,09,16,09,22,16.20
2012,09,16,09,23,16.20
2012,09,16,09,24,16.20
2012,09,16,09,25,16.20
2012,09,16,09,26,16.20
2012,09,16,09,27,16.20
2012,09,16,09,28,16.20
2012,09,16,09,29,16.30
2012,09,16,09,30,16.30
2012,09,16,09,31,16.30
2012,09,16,09,32,16.20
2012,09,16,09,33,16.20
2012,09,16,09,34,16.20
2012,09,16,09,35,16.20
2012,09,16,09,36,16.20
2012,09,16,09,37,16.20
2012,09,16,09,38,16.20
2012,09,16,09,39,16.20
2012,09,16,09,40,16.30
2012,09,16,09,41,16.30
2012,09,16,09,42,16.30
2012,09,16,09,43,16.30
2012,09,16,09,44,16.30
2012,09,16,09,45,16.30
2012,09,16,09,46,16.30
2012,09,16,09,47,16.30
2012,09,16,09,48,16.40
2012,09,16,09,49,16.40
2012,09,16,09,50,16.40
2012,09,16,09,51,16.40
2012,09,16,09,52,16.40
2012,09,16,09,53,16.40
2012,09,16,09,54,16.40
2012,09,16,09,55,16.50
2012,09,16,09,56,16.50
2012,09,16,09,57,16.50
2012,09,16,09,58,16.60
2012,09,16,09,59,16.60
2012,09,16,10,00,16.70
2012,09,16,10,01,16.70
2012,09,16,10,02,16.70
2012,09,16,10,03,16.80
2012,09,16,10,04,16.80
2012,09,16,10,05,16.80
2012,09,16,10,06,16.90
2012,09,16,10,07,16.90
2012,09,16,10,08,17.00
2012,09,16,10,09,17.10
2012,09,16,10,10,17.20
2012,09,16,10,11,17.20
2012,09,16,10,12,17.10
2012,09,16,10,13,17.10
2012,09,16,10,14,17.10
2012,09,16,10,15,17.10
2012,09,16,10,16,17.00
2012,09,16,10,17,17.00
2012,09,16,10,18,17.00
2012,09,16,10,19,16.90
2012,09,16,10,20,16.90
2012,09,16,10,21,16.90
2012,09,16,10,22,16.80
2012,09,16,10,23,16.80
2012,09,16,10,24,16.80
2012,09,16,10,25,16.70
2012,09,16,10,26,16.70
2012,09,16,10,27,16.60
2012,09,16,10,28,16.60
2012,09,16,10,29,16.70
2012,09,16,10,30,16.60
2012,09,16,10,31,16.60
2012,09,16,10,32,16.60
2012,09,16,10,33,16.60
2012,09,16,10,34,16.70
2012,09,16,10,35,16.70
2012,09,16,10,36,16.70
2012,09,16,10,37,16.70
2012,09,16,10,38,16.70
2012,09,16,10,39,16.70
2012,09,16,10,40,16.60
2012,09,16,10,41,16.60
2012,09,16,10,42,16.60
2012,09,16,10,43,16.70
2012,09,16,10,44,16.70
2012,09,16,10,45,16.80
2012,09,16,10,46,16.90
2012,09,16,10,47,17.00
2012,09,16,10,48,17.10
2012,09,16,10,49,17.10
2012,09,16,10,50,17.20
2012,09,16,10,51,17.30
2012,09,16,10,52,17.30
2012,09,16,10,53,17.30
2012,09,16,10,54,17.30
2012,09,16,10,55,17.30
2012,09,16,10,56,17.30
2012,09,16,10,57,17.30
2012,09,16,10,58,17.20
2012,09,16,10,59,17.20
2012,09,16,11,00,17.20
2012,09,16,11,01,17.20
2012,09,16,11,02,17.20
2012,09,16,11,03,17.20
2012,09,16,11,04,17.20
2012,09,16,11,05,17.20
2012,09,16,11,06,17.20
2012,09,16,11,07,17.20
2012,09,16,11,08,17.20
2012,09,16,11,09,17.20
2012,09,16,11,10,17.10
2012,09,16,11,11,17.10
2012,09,16,11,12,17.10
2012,09,16,11,13,17.10
2012,09,16,11,14,17.10
2012,09,16,11,15,17.10
2012,09,16,11,16,17.10
2012,09,16,11,17,17.00
2012,09,16,11,18,16.90
2012,09,16,11,19,16.90
2012,09,16,11,20,16.90
2012,09,16,11,21,16.90
2012,09,16,11,22,16.90
2012,09,16,11,23,16.80
2012,09,16,11,24,16.70
2012,09,16,11,25,16.70
2012,09,16,11,26,16.70
2012,09,16,11,27,16.60
2012,09,16,11,28,16.60
2012,09,16,11,29,16.60
2012,09,16,11,30,16.50
2012,09,16,11,31,16.50
2012,09,16,11,32,16.40
2012,09,16,11,33,16.40
2012,09,16,11,34,16.40
2012,09,16,11,35,16.40
2012,09,16,11,36,16.40
2012,09,16,11,37,16.40
2012,09,16,11,38,16.40
2012,09,16,11,39,16.50
2012,09,16,11,40,16.60
2012,09,16,11,41,16.60
2012,09,16,11,42,16.70
2012,09,16,11,43,16.80
2012,09,16,11,44,16.80
2012,09,16,11,45,16.90
2012,09,16,11,46,16.90
2012,09,16,11,47,16.90
2012,09,16,11,48,17.00
2012,09,16,11,49,17.00
2012,09,16,11,50,17.10
2012,09,16,11,51,17.10
2012,09,16,11,52,17.10
2012,09,16,11,53,17.10
2012,09,16,11,54,17.10
2012,09,16,11,55,17.10
2012,09,16,11,56,17.10
2012,09,16,11,57,17.20
2012,09,16,11,58,17.20
2012,09,16,11,59,17.30
2012,09,16,12,00,17.30
2012,09,16,12,01,17.40
2012,09,16,12,02,17.40
2012,09,16,12,03,17.50
2012,09,16,12,04,17.60
2012,09,16,12,05,17.60
2012,09,16,12,06,17.60
2012,09,16,12,07,17.60
2012,09,16,12,08,17.70
2012,09,16,12,09,17.70
2012,09,16,12,10,17.80
2012,09,16,12,11,17.80
2012,09,16,12,12,17.80
2012,09,16,12,13,17.80
2012,09,16,12,14,17.70
2012,09,16,12,15,17.70
2012,09,16,12,16,17.70
2012,09,16,12,17,17.70
2012,09,16,12,18,17.70
2012,09,16,12,19,17.80
2012,09,16,12,20,17.80
2012,09,16,12,21,17.80
2012,09,16,12,22,17.80
2012,09,16,12,23,17.80
2012,09,16,12,24,17.90
2012,09,16,12,25,17.90
2012,09,16,12,26,18.00
2012,09,16,12,27,18.10
2012,09,16,12,28,18.10
2012,09,16,12,29,18.20
2012,09,16,12,30,18.20
2012,09,16,12,31,18.20
2012,09,16,12,32,18.20
2012,09,16,12,33,18.20
2012,09,16,12,34,18.20
2012,09,16,12,35,18.20
2012,09,16,12,36,18.20
2012,09,16,12,37,18.20
2012,09,16,12,38,18.20
2012,09,16,12,39,18.20
2012,09,16,12,40,18.20
2012,09,16,12,41,18.40
2012,09,16,12,42,18.50
2012,09,16,12,43,18.60
2012,09,16,12,44,18.70
2012,09,16,12,45,18.70
2012,09,16,12,46,18.70
2012,09,16,12,47,18.80
2012,09,16,12,48,18.80
2012,09,16,12,49,18.80
2012,09,16,12,50,18.90
2012,09,16,12,51,18.90
2012,09,16,12,52,19.00
2012,09,16,12,53,19.00
2012,09,16,12,54,19.00
2012,09,16,12,55,19.00
2012,09,16,12,56,19.00
2012,09,16,12,57,19.00
2012,09,16,12,58,19.10
2012,09,16,12,59,19.00
2012,09,16,13,00,19.00
2012,09,16,13,01,19.10
2012,09,16,13,02,19.10
2012,09,16,13,03,19.10
2012,09,16,13,04,19.10
2012,09,16,13,05,19.10
2012,09,16,13,06,19.10
2012,09,16,13,07,19.10
2012,09,16,13,08,19.10
2012,09,16,13,09,19.10
2012,09,16,13,10,19.10
2012,09,16,13,11,19.20
2012,09,16,13,12,19.20
2012,09,16,13,13,19.30
2012,09,16,13,14,19.30
2012,09,16,13,15,19.20
2012,09,16,13,16,19.20
2012,09,16,13,17,19.30
2012,09,16,13,18,19.40
2012,09,16,13,19,19.40
2012,09,16,13,20,19.50
2012,09,16,13,21,19.50
2012,09,16,13,22,19.60
2012,09,16,13,23,19.70
2012,09,16,13,24,19.80
2012,09,16,13,25,19.80
2012,09,16,13,26,19.90
2012,09,16,13,27,19.90
2012,09,16,13,28,19.90
2012,09,16,13,29,20.00
2012,09,16,13,30,19.90
2012,09,16,13,31,19.90
2012,09,16,13,32,19.80
2012,09,16,13,33,19.80
2012,09,16,13,34,19.80
2012,09,16,13,35,19.80
2012,09,16,13,36,19.70
2012,09,16,13,37,19.70
2012,09,16,13,38,19.70
2012,09,16,13,39,19.70
2012,09,16,13,40,19.70
2012,09,16,13,41,19.70
2012,09,16,13,42,19.70
2012,09,16,13,43,19.70
2012,09,16,13,44,19.70
2012,09,16,13,45,19.70
2012,09,16,13,46,19.70
2012,09,16,13,47,19.70
2012,09,16,13,48,19.70
2012,09,16,13,49,19.80
2012,09,16,13,50,19.80
2012,09,16,13,51,19.90
2012,09,16,13,52,20.00
2012,09,16,13,53,20.10
2012,09,16,13,54,20.10
2012,09,16,13,55,20.20
2012,09,16,13,56,20.20
2012,09,16,13,57,20.20
2012,09,16,13,58,20.30
2012,09,16,13,59,20.40
2012,09,16,14,00,20.50
2012,09,16,14,01,20.60
2012,09,16,14,02,20.70
2012,09,16,14,03,20.70
2012,09,16,14,04,20.80
2012,09,16,14,05,20.70
2012,09,16,14,06,20.70
2012,09,16,14,07,20.60
2012,09,16,14,08,20.60
2012,09,16,14,09,20.50
2012,09,16,14,10,20.50
2012,09,16,14,11,20.50
2012,09,16,14,12,20.60
2012,09,16,14,13,20.60
2012,09,16,14,14,20.70
2012,09,16,14,15,20.70
2012,09,16,14,16,20.70
2012,09,16,14,17,20.70
2012,09,16,14,18,20.80
2012,09,16,14,19,20.90
2012,09,16,14,20,21.00
2012,09,16,14,21,21.10
2012,09,16,14,22,21.10
2012,09,16,14,23,21.20
2012,09,16,14,24,21.20
2012,09,16,14,25,21.20
2012,09,16,14,26,21.30
2012,09,16,14,27,21.40
2012,09,16,14,28,21.50
2012,09,16,14,29,21.60
2012,09,16,14,30,21.60
2012,09,16,14,31,21.70
2012,09,16,14,32,21.80
2012,09,16,14,33,21.80
2012,09,16,14,34,21.90
2012,09,16,14,35,21.90
2012,09,16,14,36,21.90
2012,09,16,14,37,21.90
2012,09,16,14,38,21.90
2012,09,16,14,39,21.90
2012,09,16,14,40,22.00
2012,09,16,14,41,22.00
2012,09,16,14,42,22.10
2012,09,16,14,43,22.10
2012,09,16,14,44,22.20
2012,09,16,14,45,22.20
2012,09,16,14,46,22.30
2012,09,16,14,47,22.30
2012,09,16,14,48,22.30
2012,09,16,14,49,22.30
2012,09,16,14,50,22.30
2012,09,16,14,51,22.20
2012,09,16,14,52,22.10
2012,09,16,14,53,22.10
2012,09,16,14,54,22.00
2012,09,16,14,55,22.00
2012,09,16,14,56,21.90
2012,09,16,14,57,21.80
2012,09,16,14,58,21.80
2012,09,16,14,59,21.80
2012,09,16,15,00,21.80
2012,09,16,15,01,21.70
2012,09,16,15,02,21.70
2012,09,16,15,03,21.70
2012,09,16,15,04,21.60
2012,09,16,15,05,21.60
2012,09,16,15,06,21.50
2012,09,16,15,07,21.50
2012,09,16,15,08,21.40
2012,09,16,15,09,21.40
2012,09,16,15,10,21.40
2012,09,16,15,11,21.40
2012,09,16,15,12,21.40
2012,09,16,15,13,21.50
2012,09,16,15,14,21.50
2012,09,16,15,15,21.50
2012,09,16,15,16,21.50
2012,09,16,15,17,21.50
2012,09,16,15,18,21.50
2012,09,16,15,19,21.50
2012,09,16,15,20,21.60
2012,09,16,15,21,21.60
2012,09,16,15,22,21.70
2012,09,16,15,23,21.70
2012,09,16,15,24,21.70
2012,09,16,15,25,21.80
2012,09,16,15,26,21.90
2012,09,16,15,27,21.90
2012,09,16,15,28,22.00
2012,09,16,15,29,22.10
2012,09,16,15,30,22.10
2012,09,16,15,31,22.20
2012,09,16,15,32,22.20
2012,09,16,15,33,22.30
2012,09,16,15,34,22.40
2012,09,16,15,35,22.50
2012,09,16,15,36,22.60
2012,09,16,15,37,22.70
2012,09,16,15,38,22.80
2012,09,16,15,39,22.90
2012,09,16,15,40,23.00
2012,09,16,15,41,23.10
2012,09,16,15,42,23.20
2012,09,16,15,43,23.30
2012,09,16,15,44,23.40
2012,09,16,15,45,23.40
2012,09,16,15,46,23.50
2012,09,16,15,47,23.50
2012,09,16,15,48,23.50
2012,09,16,15,49,23.60
2012,09,16,15,50,23.60
2012,09,16,15,51,23.70
2012,09,16,15,52,23.70
2012,09,16,15,53,23.80
2012,09,16,15,54,23.80
2012,09,16,15,55,23.80
2012,09,16,15,56,23.80
2012,09,16,15,57,23.70
2012,09,16,15,58,23.80
2012,09,16,15,59,23.70
2012,09,16,16,00,23.70
2012,09,16,16,01,23.70
2012,09,16,16,02,23.80
2012,09,16,16,03,23.80
2012,09,16,16,04,23.80
2012,09,16,16,05,23.80
2012,09,16,16,06,23.70
2012,09,16,16,07,23.70
2012,09,16,16,08,23.60
2012,09,16,16,09,23.60
2012,09,16,16,10,23.60
2012,09,16,16,11,23.60
2012,09,16,16,12,23.60
2012,09,16,16,13,23.60
2012,09,16,16,14,23.50
2012,09,16,16,15,23.50
2012,09,16,16,16,23.50
2012,09,16,16,17,23.60
2012,09,16,16,18,23.60
2012,09,16,16,19,23.70
2012,09,16,16,20,23.70
2012,09,16,16,21,23.80
2012,09,16,16,22,23.80
2012,09,16,16,23,23.90
2012,09,16,16,24,24.00
2012,09,16,16,25,24.00
2012,09,16,16,26,24.10
2012,09,16,16,27,24.10
2012,09,16,16,28,24.10
2012,09,16,16,29,24.00
2012,09,16,16,30,24.00
2012,09,16,16,31,24.00
2012,09,16,16,32,24.10
2012,09,16,16,33,24.10
2012,09,16,16,34,24.10
2012,09,16,16,35,24.10
2012,09,16,16,36,24.10
2012,09,16,16,37,24.10
2012,09,16,16,38,24.10
2012,09,16,16,39,24.10
2012,09,16,16,40,24.00
2012,09,16,16,41,23.80
2012,09,16,16,42,23.70
2012,09,16,16,43,23.70
2012,09,16,16,44,23.60
2012,09,16,16,45,23.70
2012,09,16,16,46,23.70
2012,09,16,16,47,23.80
2012,09,16,16,48,23.80
2012,09,16,16,49,23.90
2012,09,16,16,50,24.00
2012,09,16,16,51,24.00
2012,09,16,16,52,24.00
2012,09,16,16,53,23.80
2012,09,16,16,54,23.70
2012,09,16,16,55,23.60
2012,09,16,16,56,23.60
2012,09,16,16,57,23.50
2012,09,16,16,58,23.50
2012,09,16,16,59,23.40
2012,09,16,17,00,23.30
2012,09,16,17,01,23.10
2012,09,16,17,02,23.00
2012,09,16,17,03,23.00
2012,09,16,17,04,23.00
2012,09,16,17,05,22.90
2012,09,16,17,06,22.90
2012,09,16,17,07,22.90
2012,09,16,17,08,22.90
2012,09,16,17,09,22.90
2012,09,16,17,10,22.90
2012,09,16,17,11,22.90
2012,09,16,17,12,22.90
2012,09,16,17,13,22.90
2012,09,16,17,14,22.90
2012,09,16,17,15,22.90
2012,09,16,17,16,22.90
2012,09,16,17,17,22.90
2012,09,16,17,18,22.90
2012,09,16,17,19,23.00